Погода в Джиде

Россия / Республика Бурятия     50°40′59″N   106°10′48″E
темп.,
°C
ветер,
м/с
пор.,
м/с
влажн.,
%
обл.,
%
осадки,
мм/ч
давл.,
гПа
погр.,
м
13 июня, вс
вс1323:00+12ссз2271100 0.0 100816
02:00+12сз1171100 0.0 100711
05:00+12зюз2270100 0.1 100641
08:00+13в1177100 2.3 1006220
11:00+16ссз126193 0.0 1006749
14:00+20ссв334923 0.0 10041359
17:00+20ссв984256 0.0 10041308
20:00+15ссв7106013 0.0 1007664
14 июня, пн
пн1423:00+10ссв477737 0.0 1010255
02:00+10ссз2474100 0.0 1010238
05:00+9с127799 0.1 101067
08:00+11всв0165100 0.2 1010435
11:00+14зюз1250100 0.0 1009970
14:00+11ююз2280100 2.3 1009319
17:00+15юз126192 0.3 1007793
20:00+15сз116695 0.3 100728
15 июня, вт
вт1523:00+12ссз447272 0.0 100956
02:00+8с3677100 0.0 1012259
05:00+8с3982100 1.4 1014875
08:00+10с475229 1.6 10161399
11:00+14ссз353978 0.0 10152094
14:00+15ссв333698 0.0 10142115
17:00+16всв133313 0.0 10141908
20:00+14св23407 0.0 101480
16 июня, ср
ср1623:00+9всв225043 0.0 101512
02:00+8всв1157100 0.0 101510
05:00+7с226167 0.0 101612
08:00+12св1047100 0.0 1015351
11:00+16с3338100 0.0 10131528
14:00+18ссв6634100 0.0 10122178
17:00+17с8837100 0.0 10122050
20:00+15ссв61046100 0.0 1013640
17 июня, чт
чт1723:00+11сз38603 0.0 1015189
02:00+9зсз336978 0.0 101639
05:00+8з327596 0.0 101723
08:00+13з365797 0.0 1016554
11:00+16сз5647100 0.1 10151602
14:00+19с2535100 0.1 10142044
17:00+21с463298 0.0 10122377
20:00+18св2246100 0.0 101235